Terminal Aerodrome Forecast
Issued by NWS Green Bay, WI

Home | Current Version | Previous Version | Graphics & Text | Print | Product List | Glossary On
Versions: 1 2 3 4 5 6 7 8 9 10 11 12 13 14 15 16 17 18 19 20 21 22 23 24 25 26 27 28 29 30 31 32 33 34 35 36 37 38 39 40 41 42 43 44 45 46 47 48 49 50
303
FTUS43 KGRB 180052 AAA
TAFGRB
TAF AMD
KGRB 180052Z 1801/1824 25012G20KT P6SM SCT018 OVC030
      TEMPO 1802/1806 BKN018
     FM180600 29011G18KT P6SM BKN025
     FM181500 30014G22KT P6SM SCT025 BKN040
     FM181900 29012G20KT P6SM SCT040=

USA.gov is the U.S. government's official web portal to all federal, state and local government web resources and services.